When you browse on this site, cookies collect data to enhance your experience and personalize the content and advertising you see.
Visit our Privacy Policy to learn more. By continuing to use the site, you agree to this use of cookies and data.
  • In Spain
  • List of Countries
  • For 7 days
  • Water Temperature
  • Weather Map
  • Weather Widgets
  • user-avatar
    Login

    Hourly Weather Winchester

    Today, 17 September, Tuesday

    Time Temperature Precipitation Wind Pressure Humidity
    00:00 +14°C° 0 mm 2 mps 762 mmHg 91%
    01:00 +12°C° 0 mm 3 mps 762 mmHg 90%
    02:00 +11°C° 0 mm 3 mps 761 mmHg 89%
    03:00 +11°C° 0 mm 3 mps 761 mmHg 89%
    04:00 +10°C° 0 mm 3 mps 762 mmHg 89%
    05:00 +9°C° 0 mm 3 mps 762 mmHg 90%
    06:00 +9°C° 0 mm 3 mps 762 mmHg 90%
    07:00 +10°C° 0 mm 3 mps 762 mmHg 84%
    08:00 +12°C° 0 mm 4 mps 763 mmHg 77%
    09:00 +13°C° 0 mm 4 mps 763 mmHg 70%
    10:00 +15°C° 0 mm 4 mps 763 mmHg 65%
    11:00 +17°C° 0 mm 4 mps 763 mmHg 60%
    12:00 +18°C° 0 mm 4 mps 763 mmHg 55%
    13:00 +19°C° 0 mm 4 mps 763 mmHg 54%
    14:00 +19°C° 0 mm 4 mps 763 mmHg 53%
    15:00 +19°C° 0 mm 4 mps 763 mmHg 52%
    16:00 +18°C° 0 mm 4 mps 763 mmHg 56%
    17:00 +16°C° 0 mm 3 mps 763 mmHg 61%
    18:00 +14°C° 0 mm 3 mps 763 mmHg 66%
    19:00 +13°C° 0 mm 3 mps 764 mmHg 67%
    20:00 +12°C° 0 mm 3 mps 764 mmHg 69%
    21:00 +11°C° 0 mm 4 mps 765 mmHg 70%
    22:00 +10°C° 0 mm 3 mps 765 mmHg 73%
    23:00 +10°C° 0 mm 3 mps 765 mmHg 76%

    Tomorrow, 18 September, Wednesday

    Time Temperature Precipitation Wind Pressure Humidity
    00:00 +9°C° 0 mm 3 mps 765 mmHg 79%
    01:00 +8°C° 0 mm 3 mps 765 mmHg 79%
    02:00 +8°C° 0 mm 3 mps 765 mmHg 79%
    03:00 +8°C° 0 mm 3 mps 765 mmHg 80%
    04:00 +7°C° 0 mm 2 mps 766 mmHg 81%
    05:00 +7°C° 0 mm 2 mps 766 mmHg 82%
    06:00 +7°C° 0 mm 2 mps 766 mmHg 83%
    07:00 +9°C° 0 mm 3 mps 766 mmHg 75%
    08:00 +10°C° 0 mm 3 mps 767 mmHg 68%
    09:00 +12°C° 0 mm 4 mps 767 mmHg 61%
    10:00 +14°C° 0 mm 4 mps 767 mmHg 56%
    11:00 +15°C° 0 mm 4 mps 767 mmHg 51%
    12:00 +17°C° 0 mm 4 mps 766 mmHg 46%
    13:00 +18°C° 0 mm 3 mps 766 mmHg 46%
    14:00 +18°C° 0 mm 3 mps 766 mmHg 46%
    15:00 +18°C° 0 mm 3 mps 766 mmHg 46%
    16:00 +17°C° 0 mm 3 mps 766 mmHg 52%
    17:00 +16°C° 0 mm 3 mps 766 mmHg 57%
    18:00 +13°C° 0 mm 3 mps 766 mmHg 63%
    19:00 +14°C° 0 mm 2 mps 766 mmHg 65%
    20:00 +13°C° 0 mm 2 mps 767 mmHg 66%
    21:00 +12°C° 0 mm 2 mps 767 mmHg 68%
    22:00 +12°C° 0 mm 2 mps 767 mmHg 70%
    23:00 +10°C° 0 mm 2 mps 767 mmHg 72%

    Day after tomorrow, 19 September, Thursday

    Time Temperature Precipitation Wind Pressure Humidity
    00:00 +11°C° 0 mm 1 mps 767 mmHg 74%
    01:00 +10°C° 0 mm 1 mps 767 mmHg 76%
    02:00 +10°C° 0 mm 1 mps 767 mmHg 78%
    03:00 +10°C° 0 mm 1 mps 767 mmHg 79%
    04:00 +10°C° 0 mm 1 mps 767 mmHg 80%
    05:00 +10°C° 0 mm 1 mps 767 mmHg 80%
    06:00 +10°C° 0 mm 1 mps 767 mmHg 81%
    07:00 +12°C° 0 mm 1 mps 767 mmHg 74%
    08:00 +14°C° 0 mm 1 mps 768 mmHg 67%
    09:00 +16°C° 0 mm 1 mps 768 mmHg 60%
    10:00 +18°C° 0 mm 1 mps 768 mmHg 58%
    11:00 +18°C° 0 mm 2 mps 768 mmHg 55%
    12:00 +19°C° 0 mm 2 mps 768 mmHg 52%
    13:00 +20°C° 0 mm 2 mps 767 mmHg 52%
    14:00 +20°C° 0 mm 2 mps 767 mmHg 51%
    15:00 +20°C° 0 mm 2 mps 767 mmHg 51%
    16:00 +19°C° 0 mm 2 mps 767 mmHg 57%
    17:00 +17°C° 0 mm 2 mps 766 mmHg 63%
    18:00 +16°C° 0 mm 2 mps 766 mmHg 70%
    19:00 +15°C° 0 mm 2 mps 766 mmHg 73%
    20:00 +14°C° 0 mm 2 mps 766 mmHg 77%
    21:00 +13°C° 0 mm 2 mps 767 mmHg 81%
    22:00 +13°C° 0 mm 2 mps 766 mmHg 82%
    23:00 +12°C° 0 mm 2 mps 766 mmHg 83%

    20 September, Friday

    Time Temperature Precipitation Wind Pressure Humidity
    00:00 +11°C° 0 mm 3 mps 766 mmHg 85%
    01:00 +11°C° 0 mm 3 mps 766 mmHg 87%
    02:00 +10°C° 0 mm 3 mps 766 mmHg 89%
    03:00 +10°C° 0 mm 3 mps 766 mmHg 92%
    04:00 +10°C° 0 mm 3 mps 765 mmHg 92%
    05:00 +10°C° 0 mm 3 mps 765 mmHg 92%
    06:00 +10°C° 0 mm 3 mps 765 mmHg 92%
    07:00 +11°C° 0 mm 4 mps 765 mmHg 82%
    08:00 +13°C° 0 mm 5 mps 764 mmHg 72%
    09:00 +15°C° 0 mm 5 mps 764 mmHg 62%
    10:00 +16°C° 0 mm 6 mps 764 mmHg 57%
    11:00 +17°C° 0 mm 6 mps 764 mmHg 51%
    12:00 +19°C° 0 mm 6 mps 763 mmHg 46%
    13:00 +20°C° 0 mm 6 mps 762 mmHg 44%
    14:00 +20°C° 0 mm 6 mps 762 mmHg 42%
    15:00 +20°C° 0 mm 6 mps 761 mmHg 40%
    16:00 +17°C° 0 mm 6 mps 760 mmHg 44%
    17:00 +16°C° 0 mm 5 mps 760 mmHg 47%
    18:00 +15°C° 0 mm 5 mps 759 mmHg 51%
    19:00 +14°C° 0 mm 5 mps 759 mmHg 54%
    20:00 +14°C° 0 mm 5 mps 759 mmHg 57%
    21:00 +13°C° 0 mm 5 mps 759 mmHg 60%
    22:00 +13°C° 0 mm 5 mps 758 mmHg 63%
    23:00 +13°C° 0 mm 5 mps 758 mmHg 67%

    21 September, Saturday

    Time Temperature Precipitation Wind Pressure Humidity
    00:00 +13°C° 0 mm 5 mps 757 mmHg 70%
    01:00 +13°C° 0 mm 5 mps 757 mmHg 72%
    02:00 +12°C° 0 mm 4 mps 756 mmHg 73%
    03:00 +12°C° 0 mm 4 mps 756 mmHg 75%
    04:00 +12°C° 0 mm 4 mps 755 mmHg 78%
    05:00 +11°C° 0 mm 4 mps 755 mmHg 80%
    06:00 +11°C° 0 mm 4 mps 754 mmHg 83%
    07:00 +13°C° 0 mm 5 mps 754 mmHg 76%
    08:00 +15°C° 0 mm 5 mps 754 mmHg 70%
    09:00 +17°C° 0 mm 6 mps 754 mmHg 63%
    10:00 +19°C° 0 mm 6 mps 753 mmHg 62%
    11:00 +20°C° 0 mm 6 mps 753 mmHg 60%
    12:00 +21°C° 0 mm 6 mps 752 mmHg 58%
    13:00 +21°C° 0 mm 6 mps 752 mmHg 60%
    14:00 +22°C° 0 mm 6 mps 751 mmHg 61%
    15:00 +22°C° 0 mm 5 mps 751 mmHg 62%
    16:00 +21°C° 0.3 mm 5 mps 750 mmHg 68%
    17:00 +20°C° 0.3 mm 4 mps 750 mmHg 74%
    18:00 +19°C° 0.3 mm 3 mps 750 mmHg 80%
    19:00 +19°C° 0.6 mm 4 mps 750 mmHg 85%
    20:00 +17°C° 0.6 mm 5 mps 750 mmHg 89%
    21:00 +17°C° 0.6 mm 5 mps 751 mmHg 93%
    22:00 +17°C° 0 mm 5 mps 751 mmHg 94%
    23:00 +17°C° 0 mm 4 mps 751 mmHg 94%

    22 September, Sunday

    Time Temperature Precipitation Wind Pressure Humidity
    00:00 +15°C° 0 mm 4 mps 750 mmHg 94%
    01:00 +15°C° 0 mm 4 mps 750 mmHg 95%
    02:00 +15°C° 0 mm 4 mps 750 mmHg 95%
    03:00 +15°C° 0 mm 4 mps 750 mmHg 96%
    04:00 +16°C° 0.1 mm 5 mps 750 mmHg 95%
    05:00 +16°C° 0.1 mm 5 mps 750 mmHg 95%
    06:00 +16°C° 0.1 mm 6 mps 750 mmHg 94%
    07:00 +16°C° 1 mm 6 mps 751 mmHg 93%
    08:00 +16°C° 1 mm 5 mps 751 mmHg 91%
    09:00 +17°C° 1 mm 5 mps 751 mmHg 89%
    10:00 +17°C° 0.1 mm 5 mps 751 mmHg 81%
    11:00 +19°C° 0.1 mm 6 mps 752 mmHg 73%
    12:00 +20°C° 0.1 mm 6 mps 752 mmHg 65%
    13:00 +20°C° 0.1 mm 6 mps 752 mmHg 63%
    14:00 +20°C° 0.1 mm 6 mps 753 mmHg 61%
    15:00 +18°C° 0.1 mm 7 mps 753 mmHg 59%
    16:00 +17°C° 0 mm 6 mps 753 mmHg 63%
    17:00 +16°C° 0 mm 5 mps 754 mmHg 68%
    18:00 +15°C° 0 mm 5 mps 754 mmHg 72%
    19:00 +14°C° 0 mm 4 mps 755 mmHg 76%
    20:00 +14°C° 0 mm 4 mps 756 mmHg 79%
    21:00 +13°C° 0 mm 4 mps 756 mmHg 82%
    22:00 +13°C° 0 mm 4 mps 756 mmHg 85%
    23:00 +12°C° 0 mm 4 mps 757 mmHg 88%
    Show more